User: anonymous   Login
Location: Endfield
(51.6667°N, 0.0667°W)
Time: 07:04:35
(UTC+00:00)
Language:

Cosmos 1975 - Orbit

View from above orbital plane
View from above orbital plane
View from above satellite
View from above satellite

Ground track
Ground track

The orbit data is extracted from the following two-line orbital elements,

1 19573U 88093A   24203.89728097  .00011205  00000-0  59690-3 0  9995
2 19573  82.5271 350.0014 0015805  98.4806 261.8218 15.14983088949950
Epoch (UTC): 21 July 2024 21:32:05
Eccentricity: 0.0015805
inclination: 82.5271°
perigee height: 510 km
apogee height: 532 km
right ascension of ascending node: 350.0014°
argument of perigee: 98.4806°
revolutions per day: 15.14983088
mean anomaly at epoch: 261.8218°
orbit number at epoch: 94995

The dashed part of the orbit path shows where the satellite is in the earth's shadow,  

DLR